Regional Weather Roundup
Issued by NWS

Home | Current Version | Previous Version | Text Only | Print | Product List | Glossary On
Versions: 1 2 3 4 5 6 7 8 9 10 11 12 13 14 15 16 17 18 19 20 21 22 23 24 25 26 27 28 29 30 31 32 33 34 35 36 37 38 39 40 41 42 43 44 45 46 47 48 49 50
000
ASUS43 KMKX 271420
RWRWI

WISCONSIN REGIONAL WEATHER ROUNDUP
NATIONAL WEATHER SERVICE MILWAUKEE/SULLIVAN WI
800 AM CST TUE JAN 27 2015

NOTE: "FAIR" INDICATES FEW OR NO CLOUDS BELOW 12,000 FEET WITH NO
SIGNIFICANT WEATHER AND/OR OBSTRUCTIONS TO VISIBILITY.

WIZ001-002-006>008-014>016-023>028-271500-
NORTHWEST WISCONSIN

CITY           SKY/WX    TMP DP  RH WIND       PRES   REMARKS
SUPERIOR ARPT  CLOUDY    27  23  84 CALM      30.16R
ASHLAND        CLOUDY    26  21  81 CALM      30.14R
HAYWARD        CLOUDY    25  21  85 CALM      30.12R
SIREN          CLOUDY    28  22  77 CALM      30.14R
CUMBERLAND     CLOUDY    27  21  80 CALM      30.12R
RICE LAKE      CLOUDY    27  24  87 CALM      30.14R
CHETEK         CLOUDY    27  23  85 CALM      30.13R
LADYSMITH      CLOUDY    26  22  85 N3        30.13R
EAU CLAIRE     CLOUDY    27  22  81 CALM      30.14R
MENOMONIE      CLOUDY    28  24  83 E3        30.14R
NEW RICHMOND   CLOUDY    29  23  76 E6        30.14R WCI  23
OSCEOLA        CLOUDY    30  24  78 NE5       30.16R WCI  25
$$

WIZ003>005-009-010-017-018-271500-
NORTH CENTRAL WISCONSIN

CITY           SKY/WX    TMP DP  RH WIND       PRES   REMARKS
MANITOWISH WTR FOG       19  19  99 CALM      30.09R VSB 1
ARBOR VITAE    CLOUDY    22  20  92 CALM      30.09R FOG
WOODRUFF       CLOUDY    22  20  92 CALM      30.09R FOG
RHINELANDER    FOG       20  19  96 E5        30.09R VSB 1   WCI  13
EAGLE RIVER    CLOUDY    19  17  89 CALM      30.09R
LAND O LAKES   FLURRIES  19  18  94 CALM      30.10R
PHILLIPS       CLOUDY    20  19  96 CALM      30.10R FOG
TOMAHAWK       CLOUDY    20  18  92 CALM      30.11R FOG
MEDFORD        CLOUDY    20  19  94 CALM      30.09R FOG
MERRILL        CLOUDY    21  20  96 CALM      30.11R FOG
$$

WIZ029-030-035-036-043>047-271500-
CENTRAL WISCONSIN

CITY           SKY/WX    TMP DP  RH WIND       PRES   REMARKS
WAUSAU         CLOUDY    22  21  96 E6        30.11R FOG     WCI  14
MOSINEE        CLOUDY    21  21 100 E3        30.12R FOG
MARSHFIELD     CLOUDY    23  20  88 N3        30.11R FOG
STEVENS POINT  CLOUDY    21  20  96 E6        30.13R FOG     WCI  14
WAUPACA        CLOUDY    25  21  86 NE3       30.15R
WAUTOMA        CLOUDY    24  23  96 NE3       30.15R FOG
WISC RAPIDS    CLOUDY    23  19  85 NE3       30.14R FOG
CAMP DOUGLAS   CLOUDY    25  25 100 NE3       30.13R FOG
$$

WIZ011>013-019>022-031-037>040-048>050-271500-
NORTHEAST WISCONSIN

CITY           SKY/WX    TMP DP  RH WIND       PRES   REMARKS
ANTIGO         CLOUDY    19  19  96 E3        30.10R
SHAWANO        CLOUDY    24  20  86 CALM      30.16R
OCONTO         PTCLDY    20  18  88 CALM      30.16S
STURGEON BAY   CLOUDY    21  16  79 N5        30.18R WCI  15
GREEN BAY      CLOUDY    23  18  81 NE7       30.15R WCI  15
MANITOWOC      CLOUDY    24  18  77 CALM      30.15R
APPLETON       CLOUDY    23  19  86 E7        30.13R WCI  15
CLINTONVILLE   CLOUDY    23  21  93 CALM      30.15R
OSHKOSH        CLOUDY    24  18  77 NE7       30.14R WCI  16
$$

WIZ032>034-041-042-053>061-271500-
SOUTHWEST WISCONSIN

CITY           SKY/WX    TMP DP  RH WIND       PRES   REMARKS
LA CROSSE      CLOUDY    30  22  72 N5        30.15R WCI  25
SPARTA         CLOUDY    25  24  94 NE3       30.15R
VIROQUA        CLOUDY    26  22  87 NE12      30.10R WCI  15
BOSCOBEL       CLOUDY    29  23  78 N6        30.14R WCI  23
PRAIRIE DU CHI CLOUDY    30  20  67 N7        30.14R WCI  23
PLATTEVILLE    CLOUDY    27  24  86 N14       30.11R WCI  16
$$

WIZ056-057-062-063-064-067-068-271500-
SOUTH CENTRAL WISCONSIN

CITY           SKY/WX    TMP DP  RH WIND       PRES   REMARKS
REEDSBURG      CLOUDY    24  21  91 N7        30.13R WCI  15
BARABOO/DELLS  CLOUDY    23  21  92 CALM      30.12R FOG
LONE ROCK      CLOUDY    26  21  81 NE5       30.14R WCI  20
MINERAL POINT  CLOUDY    28  25  86 N5        30.10R WCI  23
MADISON        CLOUDY    25  22  88 N8        30.11R FOG     WCI  16
MIDDLETON      CLOUDY    26  24  92 N5        30.12R WCI  21
WATERTOWN      CLOUDY    25  25  98 CALM      30.11R FOG
MONROE         CLOUDY    25  25 100 N8        30.09R FOG     WCI  16
JANESVILLE     CLOUDY    27  25  93 N5        30.10R FOG     WCI  21
$$

WIZ051-052-058>065-066-070>072-271500-
SOUTHEAST WISCONSIN

CITY           SKY/WX    TMP DP  RH WIND       PRES   REMARKS
MILWAUKEE      MOCLDY    28  19  69 NE12      30.12R WCI  18
WAUKESHA       CLOUDY    25  21  86 E7        30.11R WCI  17
MILWAUKEE/TIMM CLOUDY    27  19  74 NE7       30.12R WCI  19
RACINE         CLOUDY    28  19  69 NE8       30.12R WCI  20
BURLINGTON     CLOUDY    25  23  93 NE5       30.10R WCI  19
KENOSHA        CLOUDY    28  21  75 NE8       30.10R WCI  20
FOND DU LAC    CLOUDY    25  18  74 NE6       30.13R WCI  18
SHEBOYGAN      CLOUDY    25  15  66 NE7       30.13R WCI  17
WEST BEND      CLOUDY    25  19  80 NE6       30.12R WCI  18
JUNEAU         CLOUDY    25  22  89 NE6       30.12R WCI  18
$$

LSZ147-162-271500-
LAKE SUPERIOR

STATION/POSITION TIME  TEMP    WIND        PRES    WAVE
                       AIR SEA DIR/SP/G            HT/PER
                 (UTC) (F)     (DEG/KT/KT) (MB)    (FT/S)
DEVILS ISLAND    1400   29      50/  7/  8 1021.4R
PORT WING        1340   27     190/  2/  2 1021.0R
SAXON HARBOR     1300   25        CALM     1019.6R
$$

LMZ867-665-643>646-271500-
LAKE MICHIGAN

STATION/POSITION TIME  TEMP    WIND        PRES    WAVE
                       AIR SEA DIR/SP/G            HT/PER
                 (UTC) (F)     (DEG/KT/KT) (MB)    (FT/S)
NORTHPORT PIER   1325   24     320/  7/  9 1021.3R
SISTER BAY       1313   21        CALM       N/A
KEWAUNEE LAKESHO 1400   23     350/  4/  7 1020.4R
SHEBOYGAN LAKESH 1400   26      60/ 11/ 12 1021.7R
PORT WASHINGTON  1340   28      50/ 12/ 15 1020.7R
KENOSHA   LAKESH 1400   29      50/ 12/ 14 1019.6R
$$

TC  - TEMPERATURE IN CELSIUS
VSB - VISIBILITY IN STATUTE MILES
WCI - WIND CHILL INDEX
HX  - HEAT INDEX



USA.gov is the U.S. government's official web portal to all federal, state and local government web resources and services.